Location: Unspecified
(48.3300°N, 0.0000°E)
Time: 23:08:34
(UTC+00:00)

Tiangong 2 - Visible Passes

Search period start: 19 May 2019 00:00
Search period end: 29 May 2019 00:00
Orbit: 378 x 387 km, 42.8° (Epoch: 19 May)

Date Brightness Start Highest point End Pass type
(mag) Time Alt. Az. Time Alt. Az. Time Alt. Az.
20 May 2.6 20:57:56 10° SSW 21:00:10 18° SSE 21:00:27 18° SSE visible
21 May 2.2 21:33:47 10° SW 21:36:04 26° S 21:36:04 26° S visible
22 May 2.4 20:34:06 10° SW 20:36:39 23° SSE 20:39:07 10° ESE visible
22 May 3.0 22:10:08 10° WSW 22:11:20 18° SW 22:11:20 18° SW visible
23 May 2.0 21:10:14 10° WSW 21:13:00 29° S 21:14:09 22° SE visible
24 May 2.3 21:46:42 10° WSW 21:49:03 25° SSW 21:49:03 25° SSW visible
25 May 2.1 20:46:43 10° WSW 20:49:29 28° S 20:51:40 14° SE visible
25 May 3.7 22:23:36 10° WSW 22:23:50 11° WSW 22:23:50 11° WSW visible
26 May 2.6 21:23:20 10° WSW 21:25:47 21° SSW 21:26:23 20° S visible
27 May 2.4 20:23:14 10° WSW 20:25:54 26° S 20:28:35 10° SE visible
27 May 3.6 22:00:52 10° SW 22:01:05 10° SW 22:01:05 10° SW visible
28 May 3.1 21:00:06 10° WSW 21:02:09 16° SSW 21:03:36 13° S visible
